Tracking 28790 objects as of 19-Apr-2024
HD Live streaming from Space Station
objects crossing your sky now

TEIKYOSAT-4 (OORURI)

Track TEIKYOSAT-4 (OORURI) now!
10-day predictions
TEIKYOSAT-4 (OORURI) is classified as:


NORAD ID: 49396
Int'l Code: 2021-102B
Perigee: 551.4 km
Apogee: 572.5 km
Inclination: 97.5 °
Period: 95.8 minutes
Semi major axis: 6932 km
RCS: Unknown
Launch date: November 9, 2021
Source: Japan (JPN)
Launch site: KAGOSHIMA SPACE CENTER UNIVERSITY OF TOKYO (KSCUT)

Uplink (MHz):
Downlink (MHz): 437.450/5831.000
Beacon (MHz): 437.450
Mode: 1k2AFSK/9k6GMSK/115k2FSK CW*
Call sign: JS1YHH
Status: Active

Your satellite tracking list
Your tracking list is empty




NASA's NSSDC Master Catalog

Two Line Element Set (TLE):
1 49396U 21102B   24110.30523119  .00004375  00000-0  32087-3 0  9991
2 49396  97.4665 157.3163 0015219 114.0299 246.2522 15.03915991133902
Source of the keplerian elements: AMSAT